User: anonymous
Location: Unspecified
(0.0000°N, 0.0000°E)
Time: 06:14:12
(UTC+02:00)
Language:

AO-40 - Orbit

View from above orbital plane
View from above orbital plane
View from above satellite
View from above satellite

Ground track
Ground track

The orbit data is extracted from the following two-line orbital elements,

1 26609U 00072B   14262.84847407 -.00000496  00000-0  00000+0 0   360
2 26609 008.4297 032.2723 7944574 151.6256 298.2342 01.25587708 63765
Epoch (UTC): 19 September 2014 20:21:48
Eccentricity: 0.7944574
inclination: 8.4297°
perigee height: 1081 km
apogee height: 58739 km
right ascension of ascending node: 32.2723°
argument of perigee: 151.6256°
revolutions per day: 1.25587708
mean anomaly at epoch: 298.2342°
orbit number at epoch: 6376

The dashed part of the orbit path shows where the satellite is in the earth's shadow,  

DLR